YU0XSU-13 Weather Reports


time (UTC)temp
C
wind
direction
speed
KPH
gust
KPH
rain 1hr
cm
rain 24hr
cm
rain mn
cm
humidity
%
barometer
mb
20260906005947 17 0 0.0 0.0 0.00 0.00 0.00 68 1020.0
20260906004934 17 0 0.0 0.0 0.00 0.00 0.00 68 1020.0
20260906003915 17 0 0.0 0.0 0.00 0.00 0.00 68 1019.9
20260906002845 17 0 0.0 0.0 0.00 0.00 0.00 69 1019.9
20260906001837 17 0 0.0 0.0 0.00 0.00 0.00 69 1019.9
20260906000817 17 0 0.0 0.0 0.00 0.00 0.00 68 1019.8
20260905235817 17 0 0.0 0.0 0.00 0.00 0.00 68 1019.9
20260905234747 17 0 0.0 0.0 0.00 0.00 0.00 68 1019.8
20260905233737 17 0 0.0 0.0 0.00 0.00 0.00 68 1019.6
20260905232737 17 0 0.0 0.0 0.00 0.00 0.00 67 1019.8
20260905231739 17 0 0.0 0.0 0.00 0.00 0.00 67 1019.7
20260905230715 17 0 0.0 0.0 0.00 0.00 0.00 67 1019.4
20260905225707 17 0 0.0 0.0 0.00 0.00 0.00 67 1019.4
20260905224647 17 0 0.0 0.0 0.00 0.00 0.00 66 1019.4
20260905223645 18 0 0.0 0.0 0.00 0.00 0.00 65 1019.4
20260905222635 18 0 0.0 0.0 0.00 0.00 0.00 66 1019.4
20260905221615 18 0 0.0 0.0 0.00 0.00 0.00 65 1019.3
20260905220615 18 0 0.0 0.0 0.00 0.00 0.00 66 1019.3
20260905215615 17 0 0.0 0.0 0.00 0.00 0.00 67 1019.2
20260905214605 17 0 0.0 0.0 0.00 0.00 0.00 68 1019.0
20260905213545 18 0 0.0 0.0 0.00 0.00 0.00 67 1019.1
20260905212515 18 0 0.0 0.0 0.00 0.00 0.00 67 1019.1
20260905211507 18 0 0.0 0.0 0.00 0.00 0.00 67 1019.0
20260905210445 18 0 0.0 0.0 0.00 0.00 0.00 65 1018.9
20260905205447 18 0 0.0 0.0 0.00 0.00 0.00 65 1018.8
20260905204427 18 0 0.0 0.0 0.00 0.00 0.00 67 1018.7
20260905203405 18 0 0.0 0.0 0.00 0.00 0.00 67 1018.5
20260905202347 18 0 0.0 0.0 0.00 0.00 0.00 65 1018.4
20260905201315 18 0 0.0 0.0 0.00 0.00 0.00 64 1018.2
20260905200247 20 0 0.0 0.0 0.00 0.00 0.00 61 1018.1
20260905195247 19 0 0.0 0.0 0.00 0.00 0.00 63 1017.9
20260905194247 20 0 0.0 0.0 0.00 0.00 0.00 61 1017.8
20260905193217 20 0 0.0 0.0 0.00 0.00 0.00 60 1017.6
20260905192149 20 0 0.0 0.0 0.00 0.00 0.00 60 1017.6
20260905191147 20 0 0.0 0.0 0.00 0.00 0.00 61 1017.5
20260905190117 20 0 0.0 0.0 0.00 0.00 0.00 61 1017.4
20260905185047 20 0 0.0 0.0 0.00 0.00 0.00 62 1017.2
20260905184047 20 0 0.0 0.0 0.00 0.00 0.00 60 1017.1
20260905183045 20 0 0.0 0.0 0.00 0.00 0.00 62 1016.9
20260905182037 20 0 0.0 0.0 0.00 0.00 0.00 60 1016.7
20260905181015 20 0 0.0 0.0 0.00 0.00 0.00 60 1016.8
20260905175947 21 0 0.0 0.0 0.00 0.00 0.00 48 1016.8
20260905174925 22 0 0.0 0.0 0.00 0.00 0.00 46 1016.7
20260905173917 23 0 0.0 0.0 0.00 0.00 0.00 39 1016.3
20260905172845 24 0 0.0 0.0 0.00 0.00 0.00 35 1016.1
20260905171837 24 0 0.0 0.0 0.00 0.00 0.00 35 1016.2
20260905170819 24 0 0.0 0.0 0.00 0.00 0.00 35 1016.2
20260905165815 25 0 0.0 0.0 0.00 0.00 0.00 34 1016.3
20260905164745 25 0 0.0 0.0 0.00 0.00 0.00 34 1016.1
20260905163737 25 0 0.0 0.0 0.00 0.00 0.00 33 1016.0
20260905162735 25 0 0.0 0.0 0.00 0.00 0.00 32 1015.8
20260905161713 25 0 0.0 0.0 0.00 0.00 0.00 31 1016.0
20260905160645 26 0 0.0 0.0 0.00 0.00 0.00 29 1016.1
20260905155637 26 0 0.0 0.0 0.00 0.00 0.00 29 1016.1
20260905154635 26 0 0.0 0.0 0.00 0.00 0.00 27 1016.1
20260905153607 27 0 0.0 0.0 0.00 0.00 0.00 27 1016.0
20260905152545 27 0 0.0 0.0 0.00 0.00 0.00 27 1015.8
20260905151537 27 0 0.0 0.0 0.00 0.00 0.00 26 1015.7
20260905150517 28 0 0.0 0.0 0.00 0.00 0.00 26 1015.7
20260905145447 28 0 0.0 0.0 0.00 0.00 0.00 26 1015.6
20260905144433 28 0 0.0 0.0 0.00 0.00 0.00 26 1015.6
20260905143406 28 0 0.0 0.0 0.00 0.00 0.00 26 1015.6
20260905142347 29 0 0.0 0.0 0.00 0.00 0.00 26 1015.4
20260905141325 30 0 0.0 0.0 0.00 0.00 0.00 25 1015.4
20260905140311 31 0 0.0 0.0 0.00 0.00 0.00 24 1015.3
20260905135309 32 0 0.0 0.0 0.00 0.00 0.00 22 1015.3
20260905134245 33 0 0.0 0.0 0.00 0.00 0.00 20 1015.3
20260905133233 33 0 0.0 0.0 0.00 0.00 0.00 20 1015.2
20260905132207 33 0 0.0 0.0 0.00 0.00 0.00 20 1015.2
20260905131147 34 0 0.0 0.0 0.00 0.00 0.00 19 1015.0
20260905130141 32 0 0.0 0.0 0.00 0.00 0.00 21 1015.0
20260905125117 32 0 0.0 0.0 0.00 0.00 0.00 20 1015.1
20260905124049 36 0 0.0 0.0 0.00 0.00 0.00 18 1015.0
20260905123047 34 0 0.0 0.0 0.00 0.00 0.00 20 1015.1
20260905122047 35 0 0.0 0.0 0.00 0.00 0.00 19 1015.1
20260905121047 36 0 0.0 0.0 0.00 0.00 0.00 20 1015.0
20260905120045 36 0 0.0 0.0 0.00 0.00 0.00 21 1015.0
20260905115017 37 0 0.0 0.0 0.00 0.00 0.00 21 1015.1
20260905114003 36 0 0.0 0.0 0.00 0.00 0.00 22 1014.9
20260905112947 35 0 0.0 0.0 0.00 0.00 0.00 25 1015.0
20260905111947 34 0 0.0 0.0 0.00 0.00 0.00 26 1014.8
20260905110945 35 0 0.0 0.0 0.00 0.00 0.00 24 1014.7
20260905105923 33 0 0.0 0.0 0.00 0.00 0.00 26 1014.8
20260905104919 33 0 0.0 0.0 0.00 0.00 0.00 26 1014.9
20260905103917 34 0 0.0 0.0 0.00 0.00 0.00 25 1014.7
20260905102917 35 0 0.0 0.0 0.00 0.00 0.00 24 1014.6
20260905101847 36 0 0.0 0.0 0.00 0.00 0.00 24 1014.2
20260905100843 36 0 0.0 0.0 0.00 0.00 0.00 24 1014.2
20260905095817 35 0 0.0 0.0 0.00 0.00 0.00 25 1013.9
20260905094811 35 0 0.0 0.0 0.00 0.00 0.00 25 1014.0
20260905093805 35 0 0.0 0.0 0.00 0.00 0.00 25 1014.0
20260905092747 35 0 0.0 0.0 0.00 0.00 0.00 25 1013.8
20260905091737 35 0 0.0 0.0 0.00 0.00 0.00 25 1013.7
20260905090709 34 0 0.0 0.0 0.00 0.00 0.00 25 1013.6
20260905085647 35 0 0.0 0.0 0.00 0.00 0.00 25 1013.7
20260905084637 33 0 0.0 0.0 0.00 0.00 0.00 26 1013.6
20260905083607 32 0 0.0 0.0 0.00 0.00 0.00 28 1013.4
20260905082547 32 0 0.0 0.0 0.00 0.00 0.00 29 1013.4
20260905081537 31 0 0.0 0.0 0.00 0.00 0.00 31 1013.2
20260905080535 31 0 0.0 0.0 0.00 0.00 0.00 32 1013.1
20260905075533 31 0 0.0 0.0 0.00 0.00 0.00 32 1013.1
20260905074517 30 0 0.0 0.0 0.00 0.00 0.00 33 1013.2
20260905073449 28 0 0.0 0.0 0.00 0.00 0.00 34 1013.2
20260905072437 28 0 0.0 0.0 0.00 0.00 0.00 35 1013.1
20260905071417 27 0 0.0 0.0 0.00 0.00 0.00 36 1013.0
20260905070347 27 0 0.0 0.0 0.00 0.00 0.00 36 1012.8
20260905065319 26 0 0.0 0.0 0.00 0.00 0.00 38 1012.8
20260905064303 26 0 0.0 0.0 0.00 0.00 0.00 40 1012.8
20260905063247 25 0 0.0 0.0 0.00 0.00 0.00 42 1012.8
20260905062247 24 0 0.0 0.0 0.00 0.00 0.00 44 1012.9
20260905061245 23 0 0.0 0.0 0.00 0.00 0.00 45 1012.8
20260905060237 22 0 0.0 0.0 0.00 0.00 0.00 46 1012.8
20260905055225 22 0 0.0 0.0 0.00 0.00 0.00 48 1012.8
20260905054217 21 0 0.0 0.0 0.00 0.00 0.00 49 1012.7
20260905053207 21 0 0.0 0.0 0.00 0.00 0.00 50 1012.7
20260905052207 20 0 0.0 0.0 0.00 0.00 0.00 52 1012.6
20260905051207 20 0 0.0 0.0 0.00 0.00 0.00 52 1012.5
20260905050201 20 0 0.0 0.0 0.00 0.00 0.00 53 1012.4
20260905045147 19 0 0.0 0.0 0.00 0.00 0.00 54 1012.4
20260905044137 19 0 0.0 0.0 0.00 0.00 0.00 54 1012.4
20260905043127 20 0 0.0 0.0 0.00 0.00 0.00 53 1012.3
20260905042107 19 0 0.0 0.0 0.00 0.00 0.00 53 1012.2
20260905041047 19 0 0.0 0.0 0.00 0.00 0.00 54 1012.1
20260905040043 20 0 0.0 0.0 0.00 0.00 0.00 53 1012.1
20260905035017 20 0 0.0 0.0 0.00 0.00 0.00 52 1012.0
20260905034007 20 0 0.0 0.0 0.00 0.00 0.00 51 1011.8
20260905032947 20 0 0.0 0.0 0.00 0.00 0.00 51 1011.7
20260905031917 20 0 0.0 0.0 0.00 0.00 0.00 51 1011.8
20260905030915 20 0 0.0 0.0 0.00 0.00 0.00 51 1011.9
20260905025853 20 0 0.0 0.0 0.00 0.00 0.00 51 1012.0
20260905024847 20 0 0.0 0.0 0.00 0.00 0.00 50 1012.1
20260905023817 20 0 0.0 0.0 0.00 0.00 0.00 50 1012.0
20260905022747 20 0 0.0 0.0 0.00 0.00 0.00 50 1012.1
20260905021737 20 0 0.0 0.0 0.00 0.00 0.00 50 1012.1
20260905020719 20 0 0.0 0.0 0.00 0.00 0.00 50 1012.1
20260905015717 21 0 0.0 0.0 0.00 0.00 0.00 50 1012.0
20260905014647 21 0 0.0 0.0 0.00 0.00 0.00 49 1012.0
20260905013637 21 0 0.0 0.0 0.00 0.00 0.00 50 1012.0
20260905012617 21 0 0.0 0.0 0.00 0.00 0.00 49 1012.1
20260905011547 21 0 0.0 0.0 0.00 0.00 0.00 48 1012.1